This demonstration page uses our WeatherBlox Daily Observations layout. Learn more.

Left ArrowRight Arrow

40.92501, -98.34201

Hourly Observations for July 27, 2021

Temp ( °F °C ) Dew Point ( °F °C ) Humidity (%) Winds ( mph kmh ) Pressure ( in mb ) Visibility ( mi km ) Precip ( " mm )
12:53 am 00:53 Clear 74 23.3 69 20.6 85 85 S 8 13 29.98 1015 8 13 0.00 0.00
1:53 am 01:53 Clear 74 23.3 69 20.6 85 85 S 8 13 29.99 1016 7 11 0.00 0.00
2:53 am 02:53 Clear with Mist and Fog 73 22.8 69 20.6 87 87 S 7 11 29.98 1015 6 10 0.00 0.00
3:53 am 03:53 Clear with Mist and Fog 72 22.2 68 20 87 87 S 7 11 29.98 1015 6 10 0.00 0.00
4:53 am 04:53 Clear 72 22.2 68 20 87 87 S 8 13 29.98 1015 7 11 0.00 0.00
5:53 am 05:53 Clear 73 22.8 67 19.4 81 81 S 6 9 29.99 1016 9 14 0.00 0.00
6:53 am 06:53 Sunny 72 22.2 66 18.9 82 82 S 6 9 30.00 1016 10 16 0.00 0.00
7:53 am 07:53 Sunny 74 23.3 67 19.4 79 79 SSW 6 9 30.01 1016 10 16 0.00 0.00
8:53 am 08:53 Sunny 79 26.1 69 20.6 72 72 SW 9 15 30.02 1017 10 16 0.00 0.00
9:53 am 09:53 Sunny 83 28.3 69 20.6 63 63 SW 9 15 30.01 1016 10 16 0.00 0.00
10:53 am 10:53 Sunny 88 31.1 70 21.1 55 55 WSW 6 9 30.01 1016 10 16 0.00 0.00
11:53 am 11:53 Sunny 91 32.8 71 21.7 52 52 SW 7 11 30.01 1016 10 16 0.00 0.00
12:53 pm 12:53 Sunny 93 33.9 71 21.7 49 49 SSW 9 15 30.01 1016 10 16 0.00 0.00
1:53 pm 13:53 Sunny 95 35 70 21.1 44 44 S 12 19 30.00 1016 10 16 0.00 0.00
2:53 pm 14:53 Sunny 95 35 68 20 41 41 S 14 22 30.00 1016 10 16 0.00 0.00
3:53 pm 15:53 Sunny 95 35 71 21.7 46 46 S 12 19 30.00 1016 10 16 0.00 0.00
4:53 pm 16:53 Sunny 94 34.4 72 22.2 49 49 S 12 19 29.98 1015 10 16 0.00 0.00
5:53 pm 17:53 Sunny 94 34.4 72 22.2 49 49 SSW 10 17 29.98 1015 10 16 0.00 0.00
6:53 pm 18:53 Sunny 93 33.9 70 21.1 47 47 SW 9 15 29.98 1015 10 16 0.00 0.00
7:53 pm 19:53 Sunny 89 31.7 72 22.2 57 57 SSE 6 9 29.98 1015 10 16 0.00 0.00
8:53 pm 20:53 Sunny 85 29.4 74 23.3 70 70 ESE 5 7 29.98 1015 10 16 0.00 0.00
9:53 pm 21:53 Clear 82 27.8 74 23.3 77 77 SSE 8 13 29.99 1016 10 16 0.00 0.00
10:53 pm 22:53 Clear 81 27.2 73 22.8 77 77 SSE 7 11 30.01 1016 10 16 0.00 0.00
11:53 pm 23:53 Clear 80 26.7 72 22.2 76 76 S 9 15 30.01 1016 10 16 0.00 0.00

Powered by AerisWeather